Find Starlink 11592

NORAD ID: 63560 Int'l Des: 2025-075 Owner: SPXS Country: US Constellation: starlink operational
LEOCIRCULAR

リアルタイム位置

3D地球を読み込み中...

Starlink 11592について

説明を読み込み中...

次回通過

Passes for default location (London). Set your location on the main map for personalized predictions.

高度履歴

Loading altitude history...

軌道要素

1 63560U 25075N 26123.58439854 .00178346 00000-0 13602-2 0 9992
2 63560 42.9998 182.7769 0001700 262.5601 97.5074 15.70903111 61886
Epoch: May 3, 2026 • Age: 12 hours

現在のステータス

高度 357.3 km
速度 7.70 km/s
衛星直下点 -11.16°S, 127°E
打ち上げ日 Apr 13, 2025
運用期間 1 years
タイプ internet

技術仕様

分類 Payload
質量 960.00 kg
乾燥質量 910.00 kg
総質量 960.00 kg
長さ 0.30 m
直径 4.10 m
スパン 29.00 m
形状 Box + pan
製造者 SPXS
バスタイプ Starlink V2MD
フェーズステータス In Orbit
所有者/国 SPXS/US

Most Searched